Regional Weather Roundup
Issued by NWS Goodland, KS

Home | Current Version | Previous Version | Graphics & Text | Print | Product List | Glossary Off
Versions: 1 2 3 4 5 6 7 8 9 10 11 12 13 14 15 16 17 18 19 20 21 22 23 24 25 26 27 28 29 30 31 32 33 34 35 36 37 38 39 40 41 42 43 44 45 46 47 48 49 50

000
ASUS43 KGLD 112208
RWRGLD

GOODLAND FORECAST AREA HOURLY WEATHER ROUNDUP
NATIONAL WEATHER SERVICE GOODLAND KS
300 PM MST THU FEB 11 2016

...OFFICIAL OBSERVATIONS...

CITY           SKY/WX    TMP DP  RH WIND       PRES   REMARKS
GOODLAND KS    CLOUDY    59  27  29 NW18G26   30.09R
HILL CITY KS   CLOUDY    50  36  58 SE7       30.07F
IMPERIAL NEB   CLOUDY    52  32  46 NW12      30.06R
MCCOOK NEB     SUNNY     46  33  60 SW3       30.05S
AKRON CO       CLOUDY    54  30  40 N12       30.13R
BURLINGTON CO  CLOUDY    60  26  27 N15       30.10S
LIMON CO       CLOUDY    47  27  45 N5        30.15R
$$

...UNOFFICIAL OBSERVATIONS...

CITY           SKY/WX    TMP DP  RH WIND       PRES   REMARKS
COLBY KS       SUNNY     52  37  58 NW7       30.08R
GOVE KS          N/A     64  32  30 MISG        N/A
LENORA KS        N/A     47  32  56 MISG        N/A
NORTON KS      SUNNY     43  28  56 CALM      30.07
SHARON SPRINGS   N/A     66  24  20 NW15        N/A
TRENTON NEB      N/A     51  32  48 MISG        N/A
KIT CARSON CO    N/A     65  23  20 MISG        N/A
YUMA CO          N/A     54  32  43 N10         N/A
$$



USA.gov is the U.S. government's official web portal to all federal, state and local government web resources and services.